Starlink 33877

operational
NORAD ID: 63933 Int'l Des: 2025-098 Owner: SPXS Country: US Constellation: starlink
LEOCIRCULAR

Über Starlink 33877

Beschreibung wird geladen...

Live-Position

3D-Globus wird geladen...

Nächste Überflüge

Höhenverlauf

Altitude vs Time

uPlot chart will show altitude changes over time

Zweizeiliger Elementsatz

1 63933U 25098H 26095.00002315 -.00030565 00000-0 -25646-2 0 9997
2 63933 70.0020 207.9776 0003201 270.8396 198.4823 14.98335529 5687
Epoch: 5. Apr. 2026 • Age: 21 hours

Aktueller Status

Höhe 583.7 km
Geschwindigkeit 7.57 km/s
Subsatellitenpunkt -35.59°S, 113.14°W
Startdatum 13. Mai 2025
Alter 0.8 years
Typ internet

Technische Details

Klassifizierung Payload
Masse 575.00 kg
Trockenmasse 530.00 kg
Gesamtmasse 575.00 kg
Länge 0.30 m
Durchmesser 4.10 m
Spannweite 29.00 m
Form Box + pan
Hersteller SPXS
Bus-Typ Starlink V2MO
Phasenstatus In Orbit
Besitzer/Staat SPXS/US

Große Konstellationen

Loading constellations...